Location: Unspecified
(51.0950°N, 12.9690°E)
Time: 21:03:28
(UTC+00:00)

ARGOS - Pass Details

Date: 28 October 2021
Orbit: 820 x 835 km, 98.4° (Epoch: 01 December)

Event Time Altitude Azimuth Distance (km) Brightness Sun altitude
Rises 17:06:03 0° 156° (SSE) 3,364 6.1 -12.6°
Reaches altitude 10° 17:08:24 10° 154° (SSE) 2,436 5.4 -12.9°
Maximum altitude 17:13:46 72° 71° (ENE) 882 3.1 -13.8°
Drops below altitude 10° 17:19:12 10° 349° (NNW) 2,459 5.7 -14.6°
Sets 17:21:35 0° 347° (NNW) 3,398 6.5 -15.0°
